Terminal Aerodrome Forecast
Issued by NWS Charleston, SC

Home | Current Version | Previous Version | Text Only | Print | Product List | Glossary On
Versions: 1 2 3 4 5 6 7 8 9 10 11 12 13 14 15 16 17 18 19 20 21 22 23 24 25 26 27 28 29 30
000
FTUS42 KCHS 270500
TAFCHS
TAF
KCHS 270520Z 2706/2806 29010G16KT P6SM SCT120
     FM271500 31010G18KT P6SM FEW050 SCT080
     FM272230 31006KT P6SM SKC=

USA.gov is the U.S. government's official web portal to all federal, state and local government web resources and services.